Year,Month,Day,Hour,Minute,Value (Times are PST for temperature in C)
2010,08,25,00,00,16.30
2010,08,25,00,01,16.30
2010,08,25,00,02,16.30
2010,08,25,00,03,16.30
2010,08,25,00,04,16.30
2010,08,25,00,05,16.30
2010,08,25,00,06,16.30
2010,08,25,00,07,16.30
2010,08,25,00,08,16.30
2010,08,25,00,09,16.30
2010,08,25,00,10,16.30
2010,08,25,00,11,16.30
2010,08,25,00,12,16.30
2010,08,25,00,13,16.30
2010,08,25,00,14,16.30
2010,08,25,00,15,16.30
2010,08,25,00,16,16.30
2010,08,25,00,17,16.30
2010,08,25,00,18,16.30
2010,08,25,00,19,16.30
2010,08,25,00,20,16.30
2010,08,25,00,21,16.20
2010,08,25,00,22,16.20
2010,08,25,00,23,16.20
2010,08,25,00,24,16.20
2010,08,25,00,25,16.20
2010,08,25,00,26,16.20
2010,08,25,00,27,16.10
2010,08,25,00,28,16.10
2010,08,25,00,29,16.10
2010,08,25,00,30,16.10
2010,08,25,00,31,16.10
2010,08,25,00,32,16.10
2010,08,25,00,33,16.00
2010,08,25,00,34,16.00
2010,08,25,00,35,16.00
2010,08,25,00,36,16.00
2010,08,25,00,37,15.90
2010,08,25,00,38,15.90
2010,08,25,00,39,15.90
2010,08,25,00,40,15.90
2010,08,25,00,41,15.80
2010,08,25,00,42,15.80
2010,08,25,00,43,15.80
2010,08,25,00,44,15.80
2010,08,25,00,45,15.80
2010,08,25,00,46,15.70
2010,08,25,00,47,15.70
2010,08,25,00,48,15.70
2010,08,25,00,49,15.70
2010,08,25,00,50,15.70
2010,08,25,00,51,15.70
2010,08,25,00,52,15.70
2010,08,25,00,53,15.60
2010,08,25,00,54,15.60
2010,08,25,00,55,15.60
2010,08,25,00,56,15.60
2010,08,25,00,57,15.60
2010,08,25,00,58,15.60
2010,08,25,00,59,15.60
2010,08,25,01,00,15.60
2010,08,25,01,01,15.60
2010,08,25,01,02,15.60
2010,08,25,01,03,15.60
2010,08,25,01,04,15.60
2010,08,25,01,05,15.60
2010,08,25,01,06,15.60
2010,08,25,01,07,15.60
2010,08,25,01,08,15.60
2010,08,25,01,09,15.60
2010,08,25,01,10,15.60
2010,08,25,01,11,15.60
2010,08,25,01,12,15.60
2010,08,25,01,13,15.60
2010,08,25,01,14,15.60
2010,08,25,01,15,15.50
2010,08,25,01,16,15.50
2010,08,25,01,17,15.50
2010,08,25,01,18,15.50
2010,08,25,01,19,15.40
2010,08,25,01,20,15.40
2010,08,25,01,21,15.40
2010,08,25,01,22,15.40
2010,08,25,01,23,15.40
2010,08,25,01,24,15.30
2010,08,25,01,25,15.30
2010,08,25,01,26,15.30
2010,08,25,01,27,15.30
2010,08,25,01,28,15.20
2010,08,25,01,29,15.20
2010,08,25,01,30,15.20
2010,08,25,01,31,15.10
2010,08,25,01,32,15.10
2010,08,25,01,33,15.10
2010,08,25,01,34,15.00
2010,08,25,01,35,15.00
2010,08,25,01,36,15.00
2010,08,25,01,37,15.00
2010,08,25,01,38,15.00
2010,08,25,01,39,15.00
2010,08,25,01,40,15.00
2010,08,25,01,41,15.00
2010,08,25,01,42,15.00
2010,08,25,01,43,15.00
2010,08,25,01,44,15.00
2010,08,25,01,45,15.00
2010,08,25,01,46,15.00
2010,08,25,01,47,15.00
2010,08,25,01,48,15.00
2010,08,25,01,49,14.90
2010,08,25,01,50,14.90
2010,08,25,01,51,14.80
2010,08,25,01,52,14.80
2010,08,25,01,53,14.80
2010,08,25,01,54,14.80
2010,08,25,01,55,14.80
2010,08,25,01,56,14.80
2010,08,25,01,57,14.80
2010,08,25,01,58,14.80
2010,08,25,01,59,14.80
2010,08,25,02,00,14.80
2010,08,25,02,01,14.80
2010,08,25,02,02,14.80
2010,08,25,02,03,14.80
2010,08,25,02,04,14.80
2010,08,25,02,05,14.80
2010,08,25,02,06,14.70
2010,08,25,02,07,14.70
2010,08,25,02,08,14.70
2010,08,25,02,09,14.70
2010,08,25,02,10,14.70
2010,08,25,02,11,14.70
2010,08,25,02,12,14.70
2010,08,25,02,13,14.70
2010,08,25,02,14,14.70
2010,08,25,02,15,14.70
2010,08,25,02,16,14.70
2010,08,25,02,17,14.60
2010,08,25,02,18,14.60
2010,08,25,02,19,14.60
2010,08,25,02,20,14.60
2010,08,25,02,21,14.60
2010,08,25,02,22,14.60
2010,08,25,02,23,14.60
2010,08,25,02,24,14.60
2010,08,25,02,25,14.60
2010,08,25,02,26,14.60
2010,08,25,02,27,14.60
2010,08,25,02,28,14.60
2010,08,25,02,29,14.60
2010,08,25,02,30,14.60
2010,08,25,02,31,14.60
2010,08,25,02,32,14.60
2010,08,25,02,33,14.60
2010,08,25,02,34,14.60
2010,08,25,02,35,14.60
2010,08,25,02,36,14.60
2010,08,25,02,37,14.60
2010,08,25,02,38,14.60
2010,08,25,02,39,14.60
2010,08,25,02,40,14.60
2010,08,25,02,41,14.60
2010,08,25,02,42,14.60
2010,08,25,02,43,14.70
2010,08,25,02,44,14.70
2010,08,25,02,45,14.70
2010,08,25,02,46,14.60
2010,08,25,02,47,14.60
2010,08,25,02,48,14.60
2010,08,25,02,49,14.60
2010,08,25,02,50,14.60
2010,08,25,02,51,14.60
2010,08,25,02,52,14.60
2010,08,25,02,53,14.60
2010,08,25,02,54,14.50
2010,08,25,02,55,14.50
2010,08,25,02,56,14.50
2010,08,25,02,57,14.40
2010,08,25,02,58,14.40
2010,08,25,02,59,14.40
2010,08,25,03,00,14.40
2010,08,25,03,01,14.40
2010,08,25,03,02,14.40
2010,08,25,03,03,14.40
2010,08,25,03,04,14.40
2010,08,25,03,05,14.40
2010,08,25,03,06,14.40
2010,08,25,03,07,14.30
2010,08,25,03,08,14.30
2010,08,25,03,09,14.30
2010,08,25,03,10,14.30
2010,08,25,03,11,14.30
2010,08,25,03,12,14.30
2010,08,25,03,13,14.30
2010,08,25,03,14,14.30
2010,08,25,03,15,14.30
2010,08,25,03,16,14.30
2010,08,25,03,17,14.30
2010,08,25,03,18,14.20
2010,08,25,03,19,14.20
2010,08,25,03,20,14.20
2010,08,25,03,21,14.20
2010,08,25,03,22,14.20
2010,08,25,03,23,14.20
2010,08,25,03,24,14.10
2010,08,25,03,25,14.10
2010,08,25,03,26,14.10
2010,08,25,03,27,14.10
2010,08,25,03,28,14.00
2010,08,25,03,29,14.00
2010,08,25,03,30,14.00
2010,08,25,03,31,14.00
2010,08,25,03,32,13.90
2010,08,25,03,33,13.90
2010,08,25,03,34,13.90
2010,08,25,03,35,13.90
2010,08,25,03,36,13.90
2010,08,25,03,37,13.90
2010,08,25,03,38,13.80
2010,08,25,03,39,13.80
2010,08,25,03,40,13.80
2010,08,25,03,41,13.80
2010,08,25,03,42,13.80
2010,08,25,03,43,13.80
2010,08,25,03,44,13.80
2010,08,25,03,45,13.70
2010,08,25,03,46,13.70
2010,08,25,03,47,13.70
2010,08,25,03,48,13.70
2010,08,25,03,49,13.70
2010,08,25,03,50,13.70
2010,08,25,03,51,13.70
2010,08,25,03,52,13.70
2010,08,25,03,53,13.70
2010,08,25,03,54,13.70
2010,08,25,03,55,13.70
2010,08,25,03,56,13.70
2010,08,25,03,57,13.70
2010,08,25,03,58,13.70
2010,08,25,03,59,13.70
2010,08,25,04,00,13.70
2010,08,25,04,01,13.70
2010,08,25,04,02,13.70
2010,08,25,04,03,13.70
2010,08,25,04,04,13.70
2010,08,25,04,05,13.70
2010,08,25,04,06,13.70
2010,08,25,04,07,13.70
2010,08,25,04,08,13.70
2010,08,25,04,09,13.70
2010,08,25,04,10,13.70
2010,08,25,04,11,13.70
2010,08,25,04,12,13.70
2010,08,25,04,13,13.70
2010,08,25,04,14,13.70
2010,08,25,04,15,13.70
2010,08,25,04,16,13.70
2010,08,25,04,17,13.70
2010,08,25,04,18,13.70
2010,08,25,04,19,13.70
2010,08,25,04,20,13.70
2010,08,25,04,21,13.70
2010,08,25,04,22,13.60
2010,08,25,04,23,13.60
2010,08,25,04,24,13.60
2010,08,25,04,25,13.60
2010,08,25,04,26,13.60
2010,08,25,04,27,13.60
2010,08,25,04,28,13.60
2010,08,25,04,29,13.60
2010,08,25,04,30,13.60
2010,08,25,04,31,13.60
2010,08,25,04,32,13.60
2010,08,25,04,33,13.60
2010,08,25,04,34,13.60
2010,08,25,04,35,13.60
2010,08,25,04,36,13.60
2010,08,25,04,37,13.50
2010,08,25,04,38,13.50
2010,08,25,04,39,13.50
2010,08,25,04,40,13.50
2010,08,25,04,41,13.50
2010,08,25,04,42,13.50
2010,08,25,04,43,13.50
2010,08,25,04,44,13.50
2010,08,25,04,45,13.50
2010,08,25,04,46,13.50
2010,08,25,04,47,13.50
2010,08,25,04,48,13.50
2010,08,25,04,49,13.50
2010,08,25,04,50,13.50
2010,08,25,04,51,13.50
2010,08,25,04,52,13.40
2010,08,25,04,53,13.40
2010,08,25,04,54,13.40
2010,08,25,04,55,13.40
2010,08,25,04,56,13.40
2010,08,25,04,57,13.40
2010,08,25,04,58,13.40
2010,08,25,04,59,13.30
2010,08,25,05,00,13.30
2010,08,25,05,01,13.30
2010,08,25,05,02,13.30
2010,08,25,05,03,13.30
2010,08,25,05,04,13.30
2010,08,25,05,05,13.30
2010,08,25,05,06,13.30
2010,08,25,05,07,13.30
2010,08,25,05,08,13.30
2010,08,25,05,09,13.30
2010,08,25,05,10,13.30
2010,08,25,05,11,13.30
2010,08,25,05,12,13.30
2010,08,25,05,13,13.30
2010,08,25,05,14,13.30
2010,08,25,05,15,13.30
2010,08,25,05,16,13.30
2010,08,25,05,17,13.30
2010,08,25,05,18,13.30
2010,08,25,05,19,13.30
2010,08,25,05,20,13.30
2010,08,25,05,21,13.30
2010,08,25,05,22,13.30
2010,08,25,05,23,13.30
2010,08,25,05,24,13.20
2010,08,25,05,25,13.20
2010,08,25,05,26,13.20
2010,08,25,05,27,13.20
2010,08,25,05,28,13.20
2010,08,25,05,29,13.20
2010,08,25,05,30,13.20
2010,08,25,05,31,13.20
2010,08,25,05,32,13.20
2010,08,25,05,33,13.20
2010,08,25,05,34,13.20
2010,08,25,05,35,13.20
2010,08,25,05,36,13.20
2010,08,25,05,37,13.20
2010,08,25,05,38,13.20
2010,08,25,05,39,13.20
2010,08,25,05,40,13.20
2010,08,25,05,41,13.20
2010,08,25,05,42,13.20
2010,08,25,05,43,13.20
2010,08,25,05,44,13.20
2010,08,25,05,45,13.20
2010,08,25,05,46,13.20
2010,08,25,05,47,13.10
2010,08,25,05,48,13.10
2010,08,25,05,49,13.10
2010,08,25,05,50,13.10
2010,08,25,05,51,13.10
2010,08,25,05,52,13.10
2010,08,25,05,53,13.10
2010,08,25,05,54,13.00
2010,08,25,05,55,13.00
2010,08,25,05,56,13.00
2010,08,25,05,57,13.00
2010,08,25,05,58,13.00
2010,08,25,05,59,12.90
2010,08,25,06,00,12.90
2010,08,25,06,01,12.90
2010,08,25,06,02,12.90
2010,08,25,06,03,12.90
2010,08,25,06,04,12.90
2010,08,25,06,05,12.90
2010,08,25,06,06,12.80
2010,08,25,06,07,12.80
2010,08,25,06,08,12.80
2010,08,25,06,09,12.80
2010,08,25,06,10,12.80
2010,08,25,06,11,12.80
2010,08,25,06,12,12.80
2010,08,25,06,13,12.80
2010,08,25,06,14,12.80
2010,08,25,06,15,12.80
2010,08,25,06,16,12.80
2010,08,25,06,17,12.80
2010,08,25,06,18,12.80
2010,08,25,06,19,12.80
2010,08,25,06,20,12.80
2010,08,25,06,21,12.80
2010,08,25,06,22,12.80
2010,08,25,06,23,12.80
2010,08,25,06,24,12.80
2010,08,25,06,25,12.80
2010,08,25,06,26,12.80
2010,08,25,06,27,12.80
2010,08,25,06,28,12.80
2010,08,25,06,29,12.80
2010,08,25,06,30,12.80
2010,08,25,06,31,12.80
2010,08,25,06,32,12.80
2010,08,25,06,33,12.80
2010,08,25,06,34,12.80
2010,08,25,06,35,12.80
2010,08,25,06,36,12.80
2010,08,25,06,37,12.80
2010,08,25,06,38,12.80
2010,08,25,06,39,12.80
2010,08,25,06,40,12.80
2010,08,25,06,41,12.80
2010,08,25,06,42,12.80
2010,08,25,06,43,12.80
2010,08,25,06,44,12.80
2010,08,25,06,45,12.80
2010,08,25,06,46,12.80
2010,08,25,06,47,12.80
2010,08,25,06,48,12.70
2010,08,25,06,49,12.80
2010,08,25,06,50,12.70
2010,08,25,06,51,12.70
2010,08,25,06,52,12.70
2010,08,25,06,53,12.70
2010,08,25,06,54,12.80
2010,08,25,06,55,12.80
2010,08,25,06,56,12.70
2010,08,25,06,57,12.80
2010,08,25,06,58,12.80
2010,08,25,06,59,12.80
2010,08,25,07,00,12.80
2010,08,25,07,01,12.80
2010,08,25,07,02,12.80
2010,08,25,07,03,12.80
2010,08,25,07,04,12.80
2010,08,25,07,05,12.90
2010,08,25,07,06,12.90
2010,08,25,07,07,12.90
2010,08,25,07,08,13.00
2010,08,25,07,09,13.00
2010,08,25,07,10,13.10
2010,08,25,07,11,13.10
2010,08,25,07,12,13.10
2010,08,25,07,13,13.20
2010,08,25,07,14,13.20
2010,08,25,07,15,13.20
2010,08,25,07,16,13.30
2010,08,25,07,17,13.30
2010,08,25,07,18,13.30
2010,08,25,07,19,13.30
2010,08,25,07,20,13.30
2010,08,25,07,21,13.30
2010,08,25,07,22,13.40
2010,08,25,07,23,13.40
2010,08,25,07,24,13.40
2010,08,25,07,25,13.40
2010,08,25,07,26,13.50
2010,08,25,07,27,13.50
2010,08,25,07,28,13.50
2010,08,25,07,29,13.60
2010,08,25,07,30,13.60
2010,08,25,07,31,13.60
2010,08,25,07,32,13.60
2010,08,25,07,33,13.60
2010,08,25,07,34,13.60
2010,08,25,07,35,13.60
2010,08,25,07,36,13.60
2010,08,25,07,37,13.60
2010,08,25,07,38,13.60
2010,08,25,07,39,13.60
2010,08,25,07,40,13.60
2010,08,25,07,41,13.60
2010,08,25,07,42,13.70
2010,08,25,07,43,13.70
2010,08,25,07,44,13.70
2010,08,25,07,45,13.70
2010,08,25,07,46,13.70
2010,08,25,07,47,13.70
2010,08,25,07,48,13.80
2010,08,25,07,49,13.80
2010,08,25,07,50,13.80
2010,08,25,07,51,13.80
2010,08,25,07,52,13.80
2010,08,25,07,53,13.80
2010,08,25,07,54,13.80
2010,08,25,07,55,13.80
2010,08,25,07,56,13.80
2010,08,25,07,57,13.90
2010,08,25,07,58,13.90
2010,08,25,07,59,13.90
2010,08,25,08,00,13.90
2010,08,25,08,01,13.90
2010,08,25,08,02,14.00
2010,08,25,08,03,14.00
2010,08,25,08,04,14.00
2010,08,25,08,05,14.10
2010,08,25,08,06,14.10
2010,08,25,08,07,14.20
2010,08,25,08,08,14.20
2010,08,25,08,09,14.30
2010,08,25,08,10,14.30
2010,08,25,08,11,14.40
2010,08,25,08,12,14.40
2010,08,25,08,13,14.50
2010,08,25,08,14,14.60
2010,08,25,08,15,14.70
2010,08,25,08,16,14.70
2010,08,25,08,17,14.80
2010,08,25,08,18,14.80
2010,08,25,08,19,14.90
2010,08,25,08,20,15.00
2010,08,25,08,21,15.00
2010,08,25,08,22,15.00
2010,08,25,08,23,15.00
2010,08,25,08,24,15.00
2010,08,25,08,25,15.10
2010,08,25,08,26,15.20
2010,08,25,08,27,15.30
2010,08,25,08,28,15.30
2010,08,25,08,29,15.40
2010,08,25,08,30,15.50
2010,08,25,08,31,15.50
2010,08,25,08,32,15.60
2010,08,25,08,33,15.70
2010,08,25,08,34,15.70
2010,08,25,08,35,15.80
2010,08,25,08,36,15.80
2010,08,25,08,37,15.90
2010,08,25,08,38,15.90
2010,08,25,08,39,16.00
2010,08,25,08,40,16.00
2010,08,25,08,41,16.10
2010,08,25,08,42,16.20
2010,08,25,08,43,16.20
2010,08,25,08,44,16.30
2010,08,25,08,45,16.40
2010,08,25,08,46,16.50
2010,08,25,08,47,16.60
2010,08,25,08,48,16.70
2010,08,25,08,49,16.70
2010,08,25,08,50,16.80
2010,08,25,08,51,16.90
2010,08,25,08,52,17.00
2010,08,25,08,53,17.00
2010,08,25,08,54,17.10
2010,08,25,08,55,17.20
2010,08,25,08,56,17.20
2010,08,25,08,57,17.20
2010,08,25,08,58,17.30
2010,08,25,08,59,17.30
2010,08,25,09,00,17.40
2010,08,25,09,01,17.40
2010,08,25,09,02,17.50
2010,08,25,09,03,17.50
2010,08,25,09,04,17.60
2010,08,25,09,05,17.70
2010,08,25,09,06,17.80
2010,08,25,09,07,17.80
2010,08,25,09,08,17.90
2010,08,25,09,09,17.90
2010,08,25,09,10,18.00
2010,08,25,09,11,18.10
2010,08,25,09,12,18.20
2010,08,25,09,13,18.30
2010,08,25,09,14,18.40
2010,08,25,09,15,18.40
2010,08,25,09,16,18.50
2010,08,25,09,17,18.60
2010,08,25,09,18,18.70
2010,08,25,09,19,18.80
2010,08,25,09,20,18.80
2010,08,25,09,21,18.90
2010,08,25,09,22,19.00
2010,08,25,09,23,19.10
2010,08,25,09,24,19.20
2010,08,25,09,25,19.30
2010,08,25,09,26,19.30
2010,08,25,09,27,19.40
2010,08,25,09,28,19.50
2010,08,25,09,29,19.60
2010,08,25,09,30,19.70
2010,08,25,09,31,19.80
2010,08,25,09,32,19.90
2010,08,25,09,33,20.00
2010,08,25,09,34,20.20
2010,08,25,09,35,20.30
2010,08,25,09,36,20.40
2010,08,25,09,37,20.50
2010,08,25,09,38,20.60
2010,08,25,09,39,20.70
2010,08,25,09,40,20.80
2010,08,25,09,41,20.80
2010,08,25,09,42,20.90
2010,08,25,09,43,21.00
2010,08,25,09,44,21.10
2010,08,25,09,45,21.20
2010,08,25,09,46,21.20
2010,08,25,09,47,21.30
2010,08,25,09,48,21.40
2010,08,25,09,49,21.40
2010,08,25,09,50,21.60
2010,08,25,09,51,21.60
2010,08,25,09,52,21.70
2010,08,25,09,53,21.80
2010,08,25,09,54,21.80
2010,08,25,09,55,21.90
2010,08,25,09,56,21.90
2010,08,25,09,57,22.00
2010,08,25,09,58,22.00
2010,08,25,09,59,22.00
2010,08,25,10,00,22.00
2010,08,25,10,01,22.00
2010,08,25,10,02,22.00
2010,08,25,10,03,22.10
2010,08,25,10,04,22.10
2010,08,25,10,05,22.00
2010,08,25,10,06,21.80
2010,08,25,10,07,21.80
2010,08,25,10,08,21.80
2010,08,25,10,09,21.80
2010,08,25,10,10,21.80
2010,08,25,10,11,21.90
2010,08,25,10,12,21.90
2010,08,25,10,13,22.00
2010,08,25,10,14,22.00
2010,08,25,10,15,22.10
2010,08,25,10,16,22.20
2010,08,25,10,17,22.20
2010,08,25,10,18,22.10
2010,08,25,10,19,22.10
2010,08,25,10,20,22.00
2010,08,25,10,21,22.10
2010,08,25,10,22,22.10
2010,08,25,10,23,22.10
2010,08,25,10,24,22.10
2010,08,25,10,25,22.10
2010,08,25,10,26,22.00
2010,08,25,10,27,21.90
2010,08,25,10,28,21.90
2010,08,25,10,29,21.80
2010,08,25,10,30,21.80
2010,08,25,10,31,21.80
2010,08,25,10,32,21.80
2010,08,25,10,33,21.80
2010,08,25,10,34,21.80
2010,08,25,10,35,21.80
2010,08,25,10,36,21.80
2010,08,25,10,37,21.80
2010,08,25,10,38,21.80
2010,08,25,10,39,21.80
2010,08,25,10,40,21.80
2010,08,25,10,41,21.80
2010,08,25,10,42,21.80
2010,08,25,10,43,21.80
2010,08,25,10,44,21.80
2010,08,25,10,45,21.90
2010,08,25,10,46,21.90
2010,08,25,10,47,22.00
2010,08,25,10,48,22.10
2010,08,25,10,49,22.20
2010,08,25,10,50,22.20
2010,08,25,10,51,22.30
2010,08,25,10,52,22.30
2010,08,25,10,53,22.30
2010,08,25,10,54,22.30
2010,08,25,10,55,22.30
2010,08,25,10,56,22.30
2010,08,25,10,57,22.30
2010,08,25,10,58,22.20
2010,08,25,10,59,22.20
2010,08,25,11,00,22.20
2010,08,25,11,01,22.20
2010,08,25,11,02,22.20
2010,08,25,11,03,22.20
2010,08,25,11,04,22.20
2010,08,25,11,05,22.20
2010,08,25,11,06,22.10
2010,08,25,11,07,22.00
2010,08,25,11,08,22.00
2010,08,25,11,09,22.00
2010,08,25,11,10,22.00
2010,08,25,11,11,22.00
2010,08,25,11,12,22.00
2010,08,25,11,13,22.10
2010,08,25,11,14,22.10
2010,08,25,11,15,22.20
2010,08,25,11,16,22.20
2010,08,25,11,17,22.30
2010,08,25,11,18,22.30
2010,08,25,11,19,22.30
2010,08,25,11,20,22.40
2010,08,25,11,21,22.40
2010,08,25,11,22,22.50
2010,08,25,11,23,22.60
2010,08,25,11,24,22.60
2010,08,25,11,25,22.60
2010,08,25,11,26,22.60
2010,08,25,11,27,22.60
2010,08,25,11,28,22.70
2010,08,25,11,29,22.70
2010,08,25,11,30,22.80
2010,08,25,11,31,22.80
2010,08,25,11,32,22.80
2010,08,25,11,33,22.80
2010,08,25,11,34,22.70
2010,08,25,11,35,22.80
2010,08,25,11,36,22.70
2010,08,25,11,37,22.70
2010,08,25,11,38,22.80
2010,08,25,11,39,22.80
2010,08,25,11,40,22.80
2010,08,25,11,41,22.80
2010,08,25,11,42,22.80
2010,08,25,11,43,22.80
2010,08,25,11,44,22.90
2010,08,25,11,45,22.80
2010,08,25,11,46,22.80
2010,08,25,11,47,22.70
2010,08,25,11,48,22.60
2010,08,25,11,49,22.70
2010,08,25,11,50,22.60
2010,08,25,11,51,22.60
2010,08,25,11,52,22.60
2010,08,25,11,53,22.50
2010,08,25,11,54,22.50
2010,08,25,11,55,22.50
2010,08,25,11,56,22.50
2010,08,25,11,57,22.50
2010,08,25,11,58,22.50
2010,08,25,11,59,22.50
2010,08,25,12,00,22.50
2010,08,25,12,01,22.50
2010,08,25,12,02,22.50
2010,08,25,12,03,22.60
2010,08,25,12,04,22.60
2010,08,25,12,05,22.60
2010,08,25,12,06,22.60
2010,08,25,12,07,22.50
2010,08,25,12,08,22.50
2010,08,25,12,09,22.50
2010,08,25,12,10,22.50
2010,08,25,12,11,22.60
2010,08,25,12,12,22.60
2010,08,25,12,13,22.60
2010,08,25,12,14,22.70
2010,08,25,12,15,22.70
2010,08,25,12,16,22.70
2010,08,25,12,17,22.80
2010,08,25,12,18,22.80
2010,08,25,12,19,22.80
2010,08,25,12,20,22.70
2010,08,25,12,21,22.60
2010,08,25,12,22,22.50
2010,08,25,12,23,22.40
2010,08,25,12,24,22.20
2010,08,25,12,25,22.20
2010,08,25,12,26,22.10
2010,08,25,12,27,22.10
2010,08,25,12,28,22.20
2010,08,25,12,29,22.20
2010,08,25,12,30,22.30
2010,08,25,12,31,22.30
2010,08,25,12,32,22.30
2010,08,25,12,33,22.30
2010,08,25,12,34,22.30
2010,08,25,12,35,22.30
2010,08,25,12,36,22.30
2010,08,25,12,37,22.40
2010,08,25,12,38,22.50
2010,08,25,12,39,22.50
2010,08,25,12,40,22.60
2010,08,25,12,41,22.70
2010,08,25,12,42,22.80
2010,08,25,12,43,22.90
2010,08,25,12,44,22.90
2010,08,25,12,45,23.00
2010,08,25,12,46,23.00
2010,08,25,12,47,23.00
2010,08,25,12,48,23.00
2010,08,25,12,49,23.00
2010,08,25,12,50,23.10
2010,08,25,12,51,23.10
2010,08,25,12,52,23.10
2010,08,25,12,53,23.20
2010,08,25,12,54,23.20
2010,08,25,12,55,23.10
2010,08,25,12,56,23.10
2010,08,25,12,57,23.00
2010,08,25,12,58,23.00
2010,08,25,12,59,22.90
2010,08,25,13,00,22.90
2010,08,25,13,01,22.90
2010,08,25,13,02,22.80
2010,08,25,13,03,22.80
2010,08,25,13,04,22.80
2010,08,25,13,05,22.80
2010,08,25,13,06,22.80
2010,08,25,13,07,22.90
2010,08,25,13,08,22.90
2010,08,25,13,09,22.90
2010,08,25,13,10,23.00
2010,08,25,13,11,23.00
2010,08,25,13,12,22.90
2010,08,25,13,13,23.00
2010,08,25,13,14,23.00
2010,08,25,13,15,23.10
2010,08,25,13,16,23.10
2010,08,25,13,17,23.10
2010,08,25,13,18,23.10
2010,08,25,13,19,23.10
2010,08,25,13,20,23.10
2010,08,25,13,21,23.10
2010,08,25,13,22,23.10
2010,08,25,13,23,23.10
2010,08,25,13,24,23.10
2010,08,25,13,25,23.00
2010,08,25,13,26,23.00
2010,08,25,13,27,23.00
2010,08,25,13,28,23.10
2010,08,25,13,29,23.10
2010,08,25,13,30,23.20
2010,08,25,13,31,23.20
2010,08,25,13,32,23.20
2010,08,25,13,33,23.20
2010,08,25,13,34,23.30
2010,08,25,13,35,23.30
2010,08,25,13,36,23.40
2010,08,25,13,37,23.50
2010,08,25,13,38,23.70
2010,08,25,13,39,23.70
2010,08,25,13,40,23.80
2010,08,25,13,41,23.90
2010,08,25,13,42,23.90
2010,08,25,13,43,24.00
2010,08,25,13,44,24.20
2010,08,25,13,45,24.30
2010,08,25,13,46,24.40
2010,08,25,13,47,24.40
2010,08,25,13,48,24.50
2010,08,25,13,49,24.50
2010,08,25,13,50,24.50
2010,08,25,13,51,24.50
2010,08,25,13,52,24.40
2010,08,25,13,53,24.40
2010,08,25,13,54,24.40
2010,08,25,13,55,24.40
2010,08,25,13,56,24.50
2010,08,25,13,57,24.60
2010,08,25,13,58,24.70
2010,08,25,13,59,24.90
2010,08,25,14,00,24.90
2010,08,25,14,01,25.00
2010,08,25,14,02,25.00
2010,08,25,14,03,25.10
2010,08,25,14,04,25.10
2010,08,25,14,05,25.10
2010,08,25,14,06,25.10
2010,08,25,14,07,25.20
2010,08,25,14,08,25.20
2010,08,25,14,09,25.20
2010,08,25,14,10,25.30
2010,08,25,14,11,25.30
2010,08,25,14,12,25.30
2010,08,25,14,13,25.30
2010,08,25,14,14,25.40
2010,08,25,14,15,25.40
2010,08,25,14,16,25.50
2010,08,25,14,17,25.40
2010,08,25,14,18,25.40
2010,08,25,14,19,25.40
2010,08,25,14,20,25.40
2010,08,25,14,21,25.40
2010,08,25,14,22,25.50
2010,08,25,14,23,25.60
2010,08,25,14,24,25.70
2010,08,25,14,25,25.90
2010,08,25,14,26,26.00
2010,08,25,14,27,26.20
2010,08,25,14,28,26.30
2010,08,25,14,29,26.40
2010,08,25,14,30,26.50
2010,08,25,14,31,26.60
2010,08,25,14,32,26.70
2010,08,25,14,33,26.70
2010,08,25,14,34,26.70
2010,08,25,14,35,26.70
2010,08,25,14,36,26.70
2010,08,25,14,37,26.60
2010,08,25,14,38,26.50
2010,08,25,14,39,26.30
2010,08,25,14,40,26.20
2010,08,25,14,41,26.00
2010,08,25,14,42,25.90
2010,08,25,14,43,25.90
2010,08,25,14,44,25.80
2010,08,25,14,45,25.80
2010,08,25,14,46,25.80
2010,08,25,14,47,25.90
2010,08,25,14,48,26.00
2010,08,25,14,49,26.10
2010,08,25,14,50,26.20
2010,08,25,14,51,26.30
2010,08,25,14,52,26.20
2010,08,25,14,53,26.10
2010,08,25,14,54,26.10
2010,08,25,14,55,26.00
2010,08,25,14,56,26.10
2010,08,25,14,57,26.10
2010,08,25,14,58,26.20
2010,08,25,14,59,26.20
2010,08,25,15,00,26.20
2010,08,25,15,01,26.10
2010,08,25,15,02,26.10
2010,08,25,15,03,26.10
2010,08,25,15,04,26.10
2010,08,25,15,05,26.00
2010,08,25,15,06,25.90
2010,08,25,15,07,25.90
2010,08,25,15,08,25.90
2010,08,25,15,09,25.90
2010,08,25,15,10,25.80
2010,08,25,15,11,25.80
2010,08,25,15,12,25.70
2010,08,25,15,13,25.80
2010,08,25,15,14,25.80
2010,08,25,15,15,25.80
2010,08,25,15,16,25.80
2010,08,25,15,17,25.80
2010,08,25,15,18,25.80
2010,08,25,15,19,25.90
2010,08,25,15,20,25.90
2010,08,25,15,21,26.00
2010,08,25,15,22,26.10
2010,08,25,15,23,26.20
2010,08,25,15,24,26.40
2010,08,25,15,25,26.40
2010,08,25,15,26,26.40
2010,08,25,15,27,26.40
2010,08,25,15,28,26.30
2010,08,25,15,29,26.20
2010,08,25,15,30,26.20
2010,08,25,15,31,26.10
2010,08,25,15,32,26.00
2010,08,25,15,33,26.00
2010,08,25,15,34,26.00
2010,08,25,15,35,26.10
2010,08,25,15,36,26.10
2010,08,25,15,37,26.20
2010,08,25,15,38,26.20
2010,08,25,15,39,26.20
2010,08,25,15,40,26.30
2010,08,25,15,41,26.40
2010,08,25,15,42,26.50
2010,08,25,15,43,26.60
2010,08,25,15,44,26.60
2010,08,25,15,45,26.70
2010,08,25,15,46,26.70
2010,08,25,15,47,26.70
2010,08,25,15,48,26.70
2010,08,25,15,49,26.80
2010,08,25,15,50,26.80
2010,08,25,15,51,26.80
2010,08,25,15,52,26.80
2010,08,25,15,53,26.80
2010,08,25,15,54,26.80
2010,08,25,15,55,26.80
2010,08,25,15,56,26.80
2010,08,25,15,57,26.70
2010,08,25,15,58,26.70
2010,08,25,15,59,26.70
2010,08,25,16,00,26.70
2010,08,25,16,01,26.70
2010,08,25,16,02,26.70
2010,08,25,16,03,26.70
2010,08,25,16,04,26.70
2010,08,25,16,05,26.60
2010,08,25,16,06,26.60
2010,08,25,16,07,26.50
2010,08,25,16,08,26.50
2010,08,25,16,09,26.50
2010,08,25,16,10,26.50
2010,08,25,16,11,26.40
2010,08,25,16,12,26.40
2010,08,25,16,13,26.40
2010,08,25,16,14,26.40
2010,08,25,16,15,26.40
2010,08,25,16,16,26.40
2010,08,25,16,17,26.40
2010,08,25,16,18,26.40
2010,08,25,16,19,26.40
2010,08,25,16,20,26.40
2010,08,25,16,21,26.40
2010,08,25,16,22,26.50
2010,08,25,16,23,26.50
2010,08,25,16,24,26.60
2010,08,25,16,25,26.70
2010,08,25,16,26,26.70
2010,08,25,16,27,26.70
2010,08,25,16,28,26.70
2010,08,25,16,29,26.70
2010,08,25,16,30,26.80
2010,08,25,16,31,26.80
2010,08,25,16,32,26.80
2010,08,25,16,33,26.80
2010,08,25,16,34,26.70
2010,08,25,16,35,26.60
2010,08,25,16,36,26.60
2010,08,25,16,37,26.50
2010,08,25,16,38,26.50
2010,08,25,16,39,26.50
2010,08,25,16,40,26.40
2010,08,25,16,41,26.30
2010,08,25,16,42,26.30
2010,08,25,16,43,26.30
2010,08,25,16,44,26.30
2010,08,25,16,45,26.30
2010,08,25,16,46,26.30
2010,08,25,16,47,26.30
2010,08,25,16,48,26.30
2010,08,25,16,49,26.40
2010,08,25,16,50,26.40
2010,08,25,16,51,26.30
2010,08,25,16,52,26.30
2010,08,25,16,53,26.30
2010,08,25,16,54,26.20
2010,08,25,16,55,26.20
2010,08,25,16,56,26.10
2010,08,25,16,57,26.10
2010,08,25,16,58,26.10
2010,08,25,16,59,26.10
2010,08,25,17,00,26.10
2010,08,25,17,01,26.10
2010,08,25,17,02,26.20
2010,08,25,17,03,26.20
2010,08,25,17,04,26.20
2010,08,25,17,05,26.30
2010,08,25,17,06,26.30
2010,08,25,17,07,26.20
2010,08,25,17,08,26.20
2010,08,25,17,09,26.20
2010,08,25,17,10,26.20
2010,08,25,17,11,26.20
2010,08,25,17,12,26.20
2010,08,25,17,13,26.30
2010,08,25,17,14,26.30
2010,08,25,17,15,26.20
2010,08,25,17,16,26.20
2010,08,25,17,17,26.10
2010,08,25,17,18,26.10
2010,08,25,17,19,26.00